Location: Marcé
(47.5801°N, 0.3280°W)
Time: 18:25:19
(UTC+01:00)

Explorer 11/Cluster Stage 4 - Pass Details

Date: 04 December 2021
Orbit: 467 x 1255 km, 28.8° (Epoch: 21 January)

Event Time Altitude Azimuth Distance (km) Brightness Sun altitude
Exits shadow 06:11:39 12° 219° (SW) 2,924 9.2 -22.8°
Maximum altitude 06:15:13 16° 189° (S) 2,701 9.3 -22.2°
Drops below altitude 10° 06:19:45 10° 155° (SSE) 3,206 10.1 -21.5°
Sets 06:24:01 0° 136° (SE) 4,188 11.2 -20.8°
